Location: Clarion
(42.7316°N, 93.7330°W)
Time: 09:03:27
(UTC+00:00)

Cosmos 405 Rocket - Pass Details

Date: 22 April 2026
Orbit: 358 x 378 km, 81.2° (Epoch: 17 May)

Event Time Altitude Azimuth Distance (km) Brightness Sun altitude
Rises 03:30:32 0° 349° (N) 2,200 6.8 -23.6°
Reaches altitude 10° 03:32:31 10° 349° (N) 1,347 5.6 -23.9°
Enters shadow 03:33:46 23° 349° (N) 825 4.3 -24.0°
